When you browse on this site, cookies collect data to enhance your experience and personalize the content and advertising you see.
Visit our Privacy Policy to learn more. By continuing to use the site, you agree to this use of cookies and data.
  • In Czech Republic
  • List of Countries
  • For 7 days
  • Water Temperature
  • Satellite Maps
  • Weather Map
  • Weather Widgets
  • user-avatar
    Login

    Hourly Weather Rawson

    Today, 12 December, Wednesday

    Time Temperature Precipitation Wind Pressure Humidity
    00:00 +21°C° 0 mm 7 mps 757 mmHg 24%
    01:00 +21°C° 0 mm 8 mps 757 mmHg 25%
    02:00 +19°C° 0 mm 9 mps 758 mmHg 27%
    03:00 +18°C° 0 mm 9 mps 758 mmHg 29%
    04:00 +17°C° 0 mm 9 mps 758 mmHg 30%
    05:00 +16°C° 0 mm 9 mps 759 mmHg 31%
    06:00 +17°C° 0 mm 8 mps 759 mmHg 30%
    07:00 +18°C° 0 mm 8 mps 759 mmHg 28%
    08:00 +20°C° 0 mm 7 mps 759 mmHg 27%
    09:00 +21°C° 0 mm 6 mps 759 mmHg 24%
    10:00 +22°C° 0 mm 5 mps 759 mmHg 22%
    11:00 +23°C° 0 mm 4 mps 759 mmHg 19%
    12:00 +25°C° 0 mm 4 mps 759 mmHg 18%
    13:00 +26°C° 0 mm 4 mps 758 mmHg 16%
    14:00 +26°C° 0 mm 4 mps 758 mmHg 15%
    15:00 +27°C° 0 mm 4 mps 757 mmHg 15%
    16:00 +27°C° 0 mm 4 mps 757 mmHg 16%
    17:00 +27°C° 0 mm 5 mps 756 mmHg 17%
    18:00 +26°C° 0 mm 6 mps 756 mmHg 19%
    19:00 +26°C° 0 mm 7 mps 756 mmHg 20%
    20:00 +24°C° 0 mm 8 mps 755 mmHg 22%
    21:00 +23°C° 0 mm 8 mps 755 mmHg 25%
    22:00 +23°C° 0 mm 8 mps 755 mmHg 27%
    23:00 +22°C° 0 mm 9 mps 755 mmHg 30%

    Tomorrow, 13 December, Thursday

    Time Temperature Precipitation Wind Pressure Humidity
    00:00 +22°C° 0 mm 8 mps 755 mmHg 34%
    01:00 +21°C° 0 mm 8 mps 754 mmHg 37%
    02:00 +21°C° 0 mm 8 mps 754 mmHg 41%
    03:00 +20°C° 0 mm 8 mps 754 mmHg 44%
    04:00 +20°C° 0 mm 8 mps 753 mmHg 47%
    05:00 +20°C° 0 mm 8 mps 753 mmHg 49%
    06:00 +21°C° 0 mm 8 mps 753 mmHg 42%
    07:00 +23°C° 0 mm 8 mps 753 mmHg 36%
    08:00 +26°C° 0 mm 9 mps 753 mmHg 29%
    09:00 +28°C° 0 mm 8 mps 752 mmHg 25%
    10:00 +31°C° 0 mm 8 mps 752 mmHg 22%
    11:00 +32°C° 0 mm 8 mps 751 mmHg 18%
    12:00 +32°C° 0.3 mm 7 mps 751 mmHg 19%
    13:00 +30°C° 0.3 mm 6 mps 750 mmHg 21%
    14:00 +30°C° 0.3 mm 6 mps 750 mmHg 22%
    15:00 +30°C° 0.5 mm 6 mps 749 mmHg 22%
    16:00 +30°C° 0.5 mm 6 mps 749 mmHg 22%
    17:00 +30°C° 0.5 mm 6 mps 749 mmHg 22%
    18:00 +28°C° 1.3 mm 6 mps 749 mmHg 36%
    19:00 +24°C° 1.3 mm 6 mps 749 mmHg 49%
    20:00 +22°C° 1.3 mm 6 mps 749 mmHg 62%
    21:00 +21°C° 0.3 mm 5 mps 750 mmHg 65%
    22:00 +21°C° 0.3 mm 5 mps 750 mmHg 67%
    23:00 +21°C° 0.3 mm 5 mps 750 mmHg 69%

    Day after tomorrow, 14 December, Friday

    Time Temperature Precipitation Wind Pressure Humidity
    00:00 +20°C° 0.2 mm 5 mps 750 mmHg 65%
    01:00 +20°C° 0.2 mm 5 mps 750 mmHg 60%
    02:00 +20°C° 0.2 mm 5 mps 749 mmHg 56%
    03:00 +20°C° 0.4 mm 6 mps 749 mmHg 51%
    04:00 +20°C° 0.4 mm 7 mps 749 mmHg 46%
    05:00 +18°C° 0.4 mm 8 mps 750 mmHg 42%
    06:00 +19°C° 0.1 mm 9 mps 750 mmHg 39%
    07:00 +21°C° 0.1 mm 9 mps 751 mmHg 37%
    08:00 +21°C° 0.1 mm 9 mps 752 mmHg 35%
    09:00 +22°C° 0.1 mm 10 mps 752 mmHg 35%
    10:00 +22°C° 0.1 mm 10 mps 752 mmHg 35%
    11:00 +23°C° 0.1 mm 10 mps 753 mmHg 35%
    12:00 +24°C° 0 mm 11 mps 753 mmHg 33%
    13:00 +24°C° 0 mm 11 mps 753 mmHg 31%
    14:00 +26°C° 0 mm 12 mps 753 mmHg 29%
    15:00 +26°C° 0 mm 11 mps 754 mmHg 30%
    16:00 +24°C° 0 mm 11 mps 754 mmHg 31%
    17:00 +24°C° 0 mm 11 mps 755 mmHg 32%
    18:00 +22°C° 0 mm 9 mps 755 mmHg 36%
    19:00 +21°C° 0 mm 8 mps 756 mmHg 41%
    20:00 +20°C° 0 mm 7 mps 757 mmHg 46%
    21:00 +19°C° 0 mm 5 mps 757 mmHg 50%
    22:00 +18°C° 0 mm 3 mps 757 mmHg 55%
    23:00 +17°C° 0 mm 2 mps 758 mmHg 60%

    15 December, Saturday

    Time Temperature Precipitation Wind Pressure Humidity
    00:00 +18°C° 0 mm 3 mps 758 mmHg 55%
    01:00 +18°C° 0 mm 4 mps 758 mmHg 50%
    02:00 +17°C° 0 mm 5 mps 758 mmHg 44%
    03:00 +17°C° 0 mm 6 mps 758 mmHg 42%
    04:00 +16°C° 0 mm 6 mps 758 mmHg 40%
    05:00 +16°C° 0 mm 7 mps 758 mmHg 37%
    06:00 +17°C° 0 mm 7 mps 758 mmHg 35%
    07:00 +19°C° 0 mm 6 mps 758 mmHg 33%
    08:00 +20°C° 0 mm 6 mps 758 mmHg 31%
    09:00 +22°C° 0 mm 6 mps 757 mmHg 28%
    10:00 +23°C° 0 mm 6 mps 757 mmHg 25%
    11:00 +26°C° 0 mm 5 mps 757 mmHg 22%
    12:00 +27°C° 0 mm 6 mps 756 mmHg 20%
    13:00 +28°C° 0 mm 6 mps 755 mmHg 19%
    14:00 +30°C° 0 mm 6 mps 754 mmHg 17%
    15:00 +30°C° 0 mm 6 mps 754 mmHg 17%
    16:00 +32°C° 0 mm 7 mps 753 mmHg 17%
    17:00 +32°C° 0 mm 7 mps 752 mmHg 17%
    18:00 +32°C° 0 mm 7 mps 752 mmHg 19%
    19:00 +30°C° 0 mm 7 mps 751 mmHg 20%
    20:00 +29°C° 0 mm 7 mps 751 mmHg 22%
    21:00 +29°C° 0 mm 6 mps 751 mmHg 24%
    22:00 +28°C° 0 mm 6 mps 751 mmHg 26%
    23:00 +28°C° 0 mm 6 mps 751 mmHg 28%

    16 December, Sunday

    Time Temperature Precipitation Wind Pressure Humidity
    00:00 +27°C° 0 mm 7 mps 751 mmHg 30%
    01:00 +26°C° 0 mm 8 mps 750 mmHg 32%
    02:00 +24°C° 0 mm 9 mps 750 mmHg 34%
    03:00 +23°C° 0 mm 9 mps 750 mmHg 36%
    04:00 +23°C° 0 mm 9 mps 750 mmHg 37%
    05:00 +22°C° 0 mm 9 mps 750 mmHg 39%
    06:00 +22°C° 0 mm 11 mps 751 mmHg 36%
    07:00 +23°C° 0 mm 12 mps 752 mmHg 34%
    08:00 +23°C° 0 mm 14 mps 752 mmHg 31%
    09:00 +23°C° 0 mm 13 mps 753 mmHg 29%
    10:00 +23°C° 0 mm 12 mps 753 mmHg 26%
    11:00 +23°C° 0 mm 12 mps 754 mmHg 24%
    12:00 +22°C° 0 mm 11 mps 755 mmHg 24%
    13:00 +22°C° 0 mm 10 mps 755 mmHg 24%
    14:00 +22°C° 0 mm 9 mps 756 mmHg 23%
    15:00 +19°C° 0 mm 9 mps 756 mmHg 26%
    16:00 +18°C° 0 mm 9 mps 756 mmHg 29%
    17:00 +17°C° 0 mm 9 mps 757 mmHg 32%
    18:00 +16°C° 0 mm 9 mps 757 mmHg 32%
    19:00 +16°C° 0 mm 8 mps 758 mmHg 33%
    20:00 +15°C° 0 mm 7 mps 759 mmHg 34%
    21:00 +15°C° 0 mm 6 mps 759 mmHg 35%
    22:00 +15°C° 0 mm 4 mps 760 mmHg 36%
    23:00 +14°C° 0 mm 3 mps 760 mmHg 37%

    17 December, Monday

    Time Temperature Precipitation Wind Pressure Humidity
    00:00 +14°C° 0 mm 3 mps 761 mmHg 39%
    01:00 +15°C° 0 mm 2 mps 761 mmHg 40%
    02:00 +15°C° 0 mm 2 mps 761 mmHg 41%
    03:00 +14°C° 0 mm 2 mps 762 mmHg 42%
    04:00 +13°C° 0 mm 3 mps 762 mmHg 43%
    05:00 +13°C° 0 mm 4 mps 762 mmHg 44%
    06:00 +15°C° 0 mm 4 mps 762 mmHg 40%
    07:00 +16°C° 0 mm 5 mps 762 mmHg 35%
    08:00 +19°C° 0 mm 5 mps 762 mmHg 30%
    09:00 +21°C° 0 mm 5 mps 762 mmHg 26%
    10:00 +22°C° 0 mm 6 mps 761 mmHg 22%
    11:00 +24°C° 0 mm 6 mps 761 mmHg 18%
    12:00 +25°C° 0 mm 5 mps 760 mmHg 16%
    13:00 +26°C° 0 mm 5 mps 760 mmHg 15%
    14:00 +27°C° 0 mm 5 mps 759 mmHg 14%
    15:00 +27°C° 0 mm 5 mps 759 mmHg 13%
    16:00 +28°C° 0 mm 5 mps 758 mmHg 12%
    17:00 +28°C° 0 mm 5 mps 758 mmHg 11%
    18:00 +26°C° 0 mm 5 mps 758 mmHg 17%
    19:00 +23°C° 0 mm 6 mps 757 mmHg 22%
    20:00 +21°C° 0 mm 6 mps 757 mmHg 28%
    21:00 +21°C° 0 mm 6 mps 757 mmHg 31%
    22:00 +20°C° 0 mm 6 mps 757 mmHg 34%
    23:00 +20°C° 0 mm 6 mps 756 mmHg 36%
    Show more